Location: Ertinghausen
(51.6624°N, 9.7874°E)
Time: 14:47:13
(UTC+00:00)

Cosmos 2333 Rocket - Pass Details

Date: 23 May 2024
Orbit: 839 x 863 km, 70.8° (Epoch: 12 June)

Event Time Altitude Azimuth Distance (km) Brightness Sun altitude
Rises 00:45:24 0° 330° (NNW) 3,423 5.9 -15.2°
Reaches altitude 10° 00:47:57 10° 336° (NNW) 2,488 5.3 -15.0°
Maximum altitude 00:53:29 48° 51° (NE) 1,102 3.2 -14.7°
Drops below altitude 10° 00:59:01 10° 125° (SE) 2,490 4.5 -14.4°
Sets 01:01:34 0° 131° (SE) 3,426 5.2 -14.2°
